Regional Weather Roundup
Issued by NWS

Home | Current Version | Previous Version | Text Only | Print | Product List | Glossary Off
Versions: 1 2 3 4 5 6 7 8 9 10 11 12 13 14 15 16 17 18 19 20 21 22 23 24 25 26 27 28 29 30 31 32 33 34 35 36 37 38 39 40 41 42 43 44 45 46 47 48 49 50

000
ASUS43 KIND 310709
RWRIN

WEATHER ROUNDUP FOR INDIANA
NATIONAL WEATHER SERVICE INDIANAPOLIS IN
300 AM EDT MON AUG 31 2015

NOTE: "FAIR" INDICATES FEW OR NO CLOUDS BELOW 12,000 FEET WITH NO
SIGNIFICANT WEATHER AND/OR OBSTRUCTIONS TO VISIBILITY.

* - STATION DOES NOT REPORT WEATHER SUCH AS PRECIPITATION OR FOG.

+ - STATION NOT QUALITY CONTROLLED BY THE NATIONAL WEATHER SERVICE.
    USE DATA WITH CAUTION...ESPECIALLY DEWPOINT AND RELATIVE
    HUMIDITY OBSERVATIONS.

INZ001>003-010>013-019-020-310800-
NORTHWEST INDIANA

CITY           SKY/WX    TMP DP  RH WIND       PRES   REMARKS
GARY /AIRPORT/ FOG       62  61  94 CALM      30.05S VSB 1/2
KNOX *+          N/A     59  59 100 CALM      30.03F VSB 1/4
LA PORTE +     FOG      N/A N/A N/A CALM      30.06S VSB 1/4
MICHIGAN CITY+ MOCLDY    61  61 100 CALM      30.05S FOG
MONTICELLO +   CLEAR     69  69 100 CALM      30.03S FOG
RENSSELAER +   FOG       63  63 100 CALM      30.04F VSB 1/4
VALPARAISO     FOG       63  62  97 CALM      30.05S VSB 1/2

$$

LMZ046-743>745-310800-
SOUTHERN LAKE MICHIGAN

STATION/POSITION TIME  TEMP    WIND        PRES    WAVE
                       AIR SEA DIR/SP/G            HT
                 (UTC) (F)     (DEG/KT/KT) (MB)    (FT)
BURNS HARBOR     0600   68      30/  2/  3 1017.6S
MICHIGAN CITY    0600   65      50/  3/  4   N/A
5NW MICH CITY    0700   68 71  130/  4/  6   N/A     1

$$

INZ004-005-014>016-021>024-310800-
NORTH CENTRAL INDIANA

CITY           SKY/WX    TMP DP  RH WIND       PRES   REMARKS
GOSHEN         FOG       63  62  97 CALM      30.05S VSB 1/4
LOGANSPORT +   PTCLDY    63  61  94 S3        30.05F FOG
PERU/GRISSOM   CLEAR     67  65  93 S3        30.04F
ROCHESTER +    CLOUDY    66  66 100 CALM      30.05S FOG
SOUTH BEND     PTCLDY    62  60  93 CALM      30.06S
WARSAW +       FOG       63  63 100 CALM      30.05F VSB<1/4

$$

INZ006>009-017-018-025>027-310800-
NORTHEAST INDIANA

CITY           SKY/WX    TMP DP  RH WIND       PRES   REMARKS
ANGOLA *+      CLOUDY    64  63  94 CALM      30.05F VSB 0
AUBURN +       FOG       64  63  94 CALM      30.05F VSB<1/4
FORT WAYNE     PTCLDY    66  64  93 S3        30.06S FOG
HUNTINGTON +   CLEAR     65  62  89 CALM      30.05S FOG

$$

INZ028-029-035-036-043>045-051>053-310800-
WEST CENTRAL INDIANA

CITY           SKY/WX    TMP DP  RH WIND       PRES   REMARKS
CRAWFORDSVL +  CLEAR     63  63 100 CALM      30.05F FOG
GREENCASTLE +  CLEAR     64  61  88 CALM      30.07S FOG
LAFAYETTE      CLEAR     67  65  93 CALM      30.03F
TERRE HAUTE    CLEAR     66  65  96 CALM      30.05S FOG

$$

INZ030>032-037>040-046>048-054>057-064-065-310800-
CENTRAL INDIANA

CITY           SKY/WX    TMP DP  RH WIND       PRES   REMARKS
FRANKFORT +    CLEAR    N/A N/A N/A CALM      30.07S HAZE
GREENWOOD *+   CLEAR     68  64  88 S3        30.07F
INDIANAPOLIS   CLEAR     70  66  87 S5        30.05S
-EAGLE CREEK   CLEAR     70  67  90 CALM      30.05F
KOKOMO *+      CLEAR     64  61  88 S3        30.05F
MARION +       CLEAR     64  59  82 CALM      30.06F
MT COMFORT *+  CLEAR     66 N/A N/A CALM      30.07F
SHELBYVILLE    CLEAR     69  65  86 S5        30.06F

$$

INZ033-034-041-042-049-050-058-059-310800-
EAST CENTRAL INDIANA

CITY           SKY/WX    TMP DP  RH WIND       PRES   REMARKS
MUNCIE         CLEAR     69  66  90 SW5       30.06F

$$

INZ060-061-067>069-081>083-085>088-310800-
SOUTHWEST INDIANA

CITY           SKY/WX    TMP DP  RH WIND       PRES   REMARKS
EVANSVILLE     CLEAR     70  66  87 SE3       30.07S
HUNTINGBURG *+ CLEAR     70  66  88 S5        30.07S
WASHINGTON +   CLEAR     67  63  87 CALM      30.05S FOG

$$

INZ062-063-066-070>080-084-089>092-310800-
SOUTH CENTRAL AND SOUTHEAST INDIANA

CITY           SKY/WX    TMP DP  RH WIND       PRES   REMARKS
BLOOMINGTON    CLEAR     66  65  96 CALM      30.07S FOG
MADISON *+     PTCLDY    66  64  94 CALM      30.10S
NORTH VERNON + PTCLDY    68  68 100 CALM      30.08F FOG
SEYMOUR +      PTCLDY    66  64  94 CALM      30.06F FOG

$$




USA.gov is the U.S. government's official web portal to all federal, state and local government web resources and services.